DAMPE                   
1 41173U 15078A   19258.84108861  .00000080  00000-0  61882-5 0  9996
2 41173  97.3086 254.5199 0014673 137.2440 341.3226 15.23811090208425
CZ-2D DEB               
1 43426U 15078B   19258.75577185  .00001429  00000-0  14407-3 0  9995
2 43426  97.4167 173.3682 0204382  25.1997 335.9019 14.78329521199413